Regional Weather Roundup
Issued by NWS Little Rock, AR

Home | Current Version | Previous Version | Text Only | Print | Product List | Glossary On
Versions: 1 2 3 4 5 6 7 8 9 10 11 12 13 14 15 16 17 18 19 20 21 22 23 24 25 26 27 28 29 30 31
000
ASUS44 KLZK 241605
RWRLZK

WEATHER ROUNDUP FOR ARKANSAS
NATIONAL WEATHER SERVICE LITTLE ROCK AR
1100 AM CDT WED MAY 24 2017

NOTE: "FAIR" INDICATES FEW OR NO CLOUDS BELOW 12,000 FEET WITH NO
SIGNIFICANT WEATHER AND/OR OBSTRUCTIONS TO VISIBILITY.

ARZ001-003-010-029-241700-
NORTHWEST ARKANSAS

CITY           SKY/WX    TMP DP  RH WIND       PRES   REMARKS
FAYETTEVILLE   PTSUNNY   59  49  69 NW12      29.73S
FORT SMITH     FAIR      65  45  48 NW13G20   29.74F
HARRISON       FAIR      59  47  64 NW15G22   29.69S
BENTONVILLE    PTSUNNY   57  46  67 NW7       29.74S
ROGERS         CLOUDY    56  46  69 NW14      29.73S
SILOAM SPGS    CLOUDY    57  43  58 NW14G20   29.74S
HIGHFILL       CLOUDY    61  47  59 NW13      29.74S
SPRINGDALE     PTSUNNY   59  46  63 NW10G18   29.74F
$$

ARZ004-005-016-241700-
NORTH CENTRAL ARKANSAS

CITY           SKY/WX    TMP DP  RH WIND       PRES   REMARKS
BATESVILLE     FAIR      64  52  63 W7        29.64F
FLIPPIN        FAIR      63  45  51 NW12      29.64F
MTN HOME       PTSUNNY   61  50  67 VRB5      29.65F
$$

ARZ040-041-241700-
WEST CENTRAL ARKANSAS

CITY           SKY/WX    TMP DP  RH WIND       PRES   REMARKS
MENA           PTSUNNY   63  48  59 W13       29.75S
MOUNT IDA      PTSUNNY   65  46  50 N8G17     29.69S
$$

ARZ009-017-025-026-028-241700-
NORTHEAST ARKANSAS

CITY           SKY/WX    TMP DP  RH WIND       PRES   REMARKS
JONESBORO      FAIR      66  51  58 W10       29.60S
NEWPORT          N/A     63  52  67 MISG        N/A
WALNUT RIDGE   FAIR      63  48  59 NW17      29.61S
BLYTHEVILLE    PTSUNNY   68  55  63 N13G20    29.57F
$$

ARZ022-023-033-042-044-241700-
CENTRAL ARKANSAS

CITY           SKY/WX    TMP DP  RH WIND       PRES   REMARKS
LITTLE ROCK    PTSUNNY   61  52  72 NW17      29.67S
N LITTLE ROCK    N/A     61  54  76 NW7       29.67R
JACKSONVILLE   PTSUNNY   63  53  70 NW9       29.66R
CONWAY           N/A     66  52  59 NW9G16    29.66S
SEARCY         PTSUNNY   63  52  67 N8        29.66S
HOT SPRINGS    CLOUDY    64  49  57 NW7G18    29.70R
RUSSELLVILLE   FAIR      63  50  62 W13G23    29.68F
CLINTON        PTSUNNY   63  50  63 NW8G15    29.66S
$$

ARZ036-241700-
EAST ARKANSAS

CITY           SKY/WX    TMP DP  RH WIND       PRES   REMARKS
WEST MEMPHIS   PTSUNNY   67  56  67 N8        29.59S
$$

ARZ050-053-066-070-073-241700-
SOUTHWEST ARKANSAS

CITY           SKY/WX    TMP DP  RH WIND       PRES   REMARKS
ARKADELPHIA    PTSUNNY   65  50  58 W12G20    29.71S
CAMDEN         FAIR      66  48  52 NW9G18    29.71S
TEXARKANA      FAIR      65  51  60 NW17G23   29.75S
EL DORADO      FAIR      65  51  60 W13G23    29.72S
DE QUEEN       PTSUNNY   63  47  55 NW12G22   29.75R
$$

ARZ056-057-069-241700-
SOUTHEAST ARKANSAS

CITY           SKY/WX    TMP DP  RH WIND       PRES   REMARKS
PINE BLUFF     PTSUNNY   65  54  67 NW9       29.67S
STUTTGART      PTSUNNY   66  46  48 NW13      29.65S
MONTICELLO     PTSUNNY   65  55  70 NW12      29.66S

$$






USA.gov is the U.S. government's official web portal to all federal, state and local government web resources and services.